Poplar Bluff, MO

2:02 PM CST on November 11, 2019 (GMT -0600)
Poplar Bluff Municipal

Weather History for KPOF - June, 2019

Change the Weather History Date:

Thursday, June 6, 2019

  Actual Average Record
Temperature  
Mean Temperature 74 °F -  
Max Temperature 81 °F 83 °F 96 °F (1925)
Min Temperature 69 °F 61 °F 50 °F (1928)
Cooling Degree Days 10    
Growing Degree Days 24 (Base 50)    
Moisture  
Dew Point 71 °F    
Average Humidity 94    
Maximum Humidity 100    
Minimum Humidity 79    
Precipitation  
Precipitation 0.14 in - - ()
Sea Level Pressure  
Sea Level Pressure 29.80 in    
Wind  
Wind Speed 6 mph (NE)    
Max Wind Speed 13 mph    
Max Gust Speed 25 mph    
Visibility 8 miles    
Events Rain    
Averages and records for this station are not official NWS values.
T = Trace of Precipitation, MM = Missing Value Source: NWS Daily Summary

Daily Weather History Graph

Daily Weather History Graph

Search for Another Location

Airport or City:

Astronomy

Jun. 06, 2019 Rise Set
Actual Time 5:42 AM CDT 8:17 PM CDT
Civil Twilight 5:12 AM CDT 8:48 PM CDT
Nautical Twilight 4:34 AM CDT 9:25 PM CDT
Astronomical Twilight 3:52 AM CDT 10:07 PM CDT
Moon 8:50 AM CDT (6/6) 11:36 PM CDT (6/6)
Length of Visible Light 15h 35m
Length of Day
14h 35m
Waxing Crescent, 14% of the Moon is Illuminated
Jun 6
Waxing Crescent
Jun 10
First Quarter
Jun 17
Full
Jun 25
Last Quarter
Jul 2
New

Hourly Weather History & Observations

Time (CDT) Temp. Heat Index Dew Point Humidity Pressure Visibility Wind Dir Wind Speed Gust Speed Precip Events Conditions
12:03 AM 75.0 °F - 68.0 °F 79% 29.87 in 10.0 mi NE 12.7 mph 25.3 mph N/A   Overcast
12:10 AM 73.9 °F - 68.0 °F 82% 29.87 in 10.0 mi NE 12.7 mph 21.9 mph N/A   Overcast
12:53 AM 71.1 °F - 69.1 °F 93% 29.83 in 10.0 mi NNE 5.8 mph - N/A   Partly Cloudy
1:53 AM 70.0 °F - 69.1 °F 97% 29.81 in 10.0 mi Calm Calm - N/A   Clear
2:53 AM 70.0 °F - 69.1 °F 97% 29.78 in 10.0 mi Calm Calm - N/A   Clear
3:53 AM 70.0 °F - 69.1 °F 97% 29.77 in 10.0 mi NNW 5.8 mph - N/A   Clear
4:53 AM 69.1 °F - 69.1 °F 100% 29.77 in 10.0 mi WNW 5.8 mph - N/A   Clear
5:53 AM 69.1 °F - 68.0 °F 96% 29.78 in 10.0 mi North 4.6 mph - N/A   Mostly Cloudy
6:03 AM 69.1 °F - 68.0 °F 96% 29.80 in 10.0 mi NE 3.5 mph - 0.00 in Rain Light Rain
6:53 AM 69.1 °F - 69.1 °F 100% 29.79 in 8.0 mi NNE 4.6 mph - 0.00 in Rain Light Rain
7:00 AM 70.0 °F - 69.1 °F 97% 29.81 in 8.0 mi NNE 8.1 mph - 0.01 in Rain Light Rain
7:09 AM 69.1 °F - 69.1 °F 100% 29.81 in 8.0 mi NE 9.2 mph - 0.01 in Rain Light Rain
7:40 AM 69.1 °F - 69.1 °F 100% 29.81 in 10.0 mi NE 8.1 mph - 0.01 in   Overcast
7:53 AM 69.1 °F - 69.1 °F 100% 29.80 in 10.0 mi NE 8.1 mph - 0.01 in   Overcast
8:11 AM 70.0 °F - 69.1 °F 97% 29.82 in 10.0 mi NE 5.8 mph - N/A   Overcast
8:31 AM 70.0 °F - 69.1 °F 97% 29.83 in 10.0 mi ENE 6.9 mph - N/A   Overcast
8:40 AM 70.0 °F - 70.0 °F 100% 29.83 in 10.0 mi NE 4.6 mph - N/A   Overcast
8:51 AM 71.6 °F - 69.8 °F 94% 29.84 in 10.0 mi ENE 4.6 mph - N/A   Overcast
8:53 AM 71.1 °F - 70.0 °F 96% 29.83 in 10.0 mi ENE 3.5 mph - N/A   Overcast
9:26 AM 71.1 °F - 70.0 °F 96% 29.85 in 1.8 mi NE 3.5 mph - N/A   Overcast
9:53 AM 71.1 °F - 71.1 °F 100% 29.84 in 2.0 mi ESE 3.5 mph - N/A   Overcast
10:05 AM 71.1 °F - 71.1 °F 100% 29.85 in 3.0 mi Calm Calm - N/A   Overcast
10:22 AM 72.0 °F - 71.1 °F 97% 29.85 in 1.8 mi Calm Calm - N/A   Overcast
10:31 AM 72.0 °F - 71.1 °F 97% 29.84 in 3.0 mi East 3.5 mph - N/A   Overcast
10:41 AM 72.0 °F - 71.1 °F 97% 29.84 in 6.0 mi NE 5.8 mph - N/A   Overcast
10:53 AM 73.0 °F - 71.1 °F 93% 29.83 in 6.0 mi NE 5.8 mph - N/A   Overcast
11:53 AM 75.0 °F - 72.0 °F 90% 29.82 in 5.0 mi ENE 5.8 mph - N/A   Overcast
12:17 PM 75.9 °F - 73.0 °F 91% 29.83 in 6.0 mi ENE 5.8 mph - N/A   Mostly Cloudy
12:30 PM 75.9 °F - 73.0 °F 91% 29.82 in 6.0 mi ENE 6.9 mph - N/A   Overcast
12:53 PM 75.9 °F - 72.0 °F 87% 29.81 in 7.0 mi NE 5.8 mph - N/A   Overcast
1:33 PM 78.1 °F - 73.0 °F 84% 29.81 in 7.0 mi NE 4.6 mph - N/A   Overcast
1:53 PM 78.1 °F - 73.0 °F 84% 29.79 in 7.0 mi NNE 5.8 mph - N/A   Overcast
2:05 PM 75.9 °F - 73.0 °F 91% 29.81 in 3.0 mi NE 5.8 mph - 0.01 in Rain Rain
2:12 PM 75.0 °F - 73.9 °F 96% 29.81 in 3.0 mi East 4.6 mph - 0.02 in Rain Rain
2:53 PM 77.0 °F - 73.9 °F 90% 29.78 in 6.0 mi Calm Calm - 0.09 in   Overcast
3:32 PM 79.0 °F - 73.9 °F 84% 29.78 in 7.0 mi NE 3.5 mph - N/A   Mostly Cloudy
3:53 PM 80.1 °F 84.5 °F 73.9 °F 81% 29.76 in 9.0 mi NE 3.5 mph - N/A   Scattered Clouds
4:33 PM 77.0 °F - 75.0 °F 94% 29.77 in 8.0 mi ENE 4.6 mph - 0.00 in Rain Light Rain
4:53 PM 77.0 °F - 73.9 °F 90% 29.76 in 8.0 mi NE 5.8 mph - 0.00 in Rain Light Rain
5:02 PM 75.9 °F - 73.9 °F 94% 29.76 in 10.0 mi NNE 8.1 mph - 0.00 in   Overcast
5:53 PM 75.9 °F - 73.0 °F 91% 29.74 in 7.0 mi NE 6.9 mph - 0.00 in Rain Light Rain
6:53 PM 72.0 °F - 71.1 °F 97% 29.74 in 10.0 mi NNE 8.1 mph - 0.04 in   Overcast
7:53 PM 73.0 °F - 70.0 °F 90% 29.74 in 10.0 mi NNE 3.5 mph - N/A   Mostly Cloudy
8:53 PM 72.0 °F - 71.1 °F 97% 29.74 in 9.0 mi NNE 5.8 mph - N/A   Scattered Clouds
9:09 PM 73.0 °F - 72.0 °F 96% 29.75 in 9.0 mi NNE 5.8 mph - N/A   Mostly Cloudy
9:19 PM 73.0 °F - 72.0 °F 96% 29.75 in 8.0 mi NNE 6.9 mph - N/A   Scattered Clouds
9:53 PM 72.0 °F - 72.0 °F 100% 29.75 in 7.0 mi NE 8.1 mph - N/A   Partly Cloudy
10:53 PM 71.1 °F - 70.0 °F 96% 29.76 in 10.0 mi NNE 5.8 mph - N/A   Overcast
11:53 PM 71.1 °F - 70.0 °F 96% 29.74 in 10.0 mi NE 4.6 mph - N/A   Mostly Cloudy